User: anonymous   Login
Location: Bagnolo San Vito
(45.0833°N, 10.8833°E)
Time: 23:53:02
(UTC+00:00)
Language:

Cosmos 2084 Rocket - Orbit

View from above orbital plane
View from above orbital plane
View from above satellite
View from above satellite

Ground track
Ground track

The orbit data is extracted from the following two-line orbital elements,

1 20666U 90055D   21128.20817488  .00000055  00000-0  23178-4 0  9996
2 20666  62.7853  79.3681 0093147  30.3375 330.3063 14.92482213673237
Epoch (UTC): 08 May 2021 04:59:46
Eccentricity: 0.0093147
inclination: 62.7853°
perigee height: 525 km
apogee height: 655 km
right ascension of ascending node: 79.3681°
argument of perigee: 30.3375°
revolutions per day: 14.92482213
mean anomaly at epoch: 330.3063°
orbit number at epoch: 67323

The dashed part of the orbit path shows where the satellite is in the earth's shadow,  

DLR